Hourly Data Report for June 22, 2021

MANIWAKI AIRPORT
QUEBEC
Current Station Operator: ECCC - MSC

46°16'29.000" N
75°59'31.000" W
199.70 m
7034482
71721
WMJ

Download Data

Hourly Data (June 2021)
Hourly Data Report for June 22, 2021
TIME
LST
Temp Definition
°C
Dew Point Definition
°C
Rel Hum Definition
%
Precip. Amount Definition
mm

Wind Dir Definition
10's deg

Wind Spd Definition
km/h
Visibility Definition
km
Stn Press Definition
kPa
Hmdx Definition


Wind Chill Definition


Weather Definition


00:00 12.9 8.3 74 0.0 32 18   97.90     LegendNANA
01:00 10.6 6.6 76 0.0 34 15   98.06     LegendNANA
02:00 9.4 5.3 76 0.0 33 15   98.15     LegendNANA
03:00 9.0 5.3 77 0.0 33 13   98.19     LegendNANA
04:00 8.0 5.0 81 0.0 31 10   98.30     LegendNANA
05:00 7.4 3.6 76 0.0 34 12   98.39     LegendNANA
06:00 7.8 4.3 79 0.0 33 9   98.47     LegendNANA
07:00 8.7 4.3 74 0.0 35 10   98.54     LegendNANA
08:00 11.1 5.2 67 0.0 36 13   98.56     LegendNANA
09:00 11.2 4.6 64 0.0 36 6   98.67     LegendNANA
10:00 11.8 4.2 60 0.0 34 14   98.67     LegendNANA
11:00 12.5 3.7 55 0.0 30 12   98.74     LegendNANA
12:00 13.3 3.6 52 0.0 28 8   98.73     LegendNANA
13:00 13.9 2.8 47 0.0 31 12   98.69     LegendNANA
14:00 14.7 3.3 46 0.0 36 9   98.66     LegendNANA
15:00 15.5 3.5 44 0.0 34 10   98.64     LegendNANA
16:00 15.5 2.5 42 0.0 33 10   98.65     LegendNANA
17:00 15.5 3.4 44 0.0 34 12   98.69     LegendNANA
18:00 14.4 3.0 46 0.0 1 13   98.73     LegendNANA
19:00 13.2 3.9 53 0.0 36 9   98.82     LegendNANA
20:00 9.7 6.3 79 0.0   0   98.87     LegendNANA
21:00 7.2 6.0 92 0.0 35 3   98.95     LegendNANA
22:00 6.0 5.1 94 0.0   0   98.95     LegendNANA
23:00 5.6 4.7 94 0.0   0   98.98     LegendNANA

Notes on Data Quality.

Legend

  • E = Estimated
  • M = Missing
  • NA = Not Available*
  • [empty] = Indicates an unobserved value
Date modified: